Hourly Weather Roundup
Issued by NWS Central Illinois

Home | Current Version | Previous Version | Text Only | Print | Product List | Glossary On
Versions: 1 2 3 4 5 6 7 8 9 10 11 12 13 14 15 16 17 18 19 20 21 22 23 24 25 26 27 28 29 30 31 32 33 34 35 36 37 38 39 40 41 42 43 44 45 46 47 48 49 50
000
NZUS43 KILX 260710
HWRILX

AREA WEATHER ROUNDUP
NATIONAL WEATHER SERVICE, LINCOLN IL
200 AM CDT SUN MAR 26 2017


CITY           SKY/WX    TMP DP  RH WIND       PRES   REMARKS
BLOOMINGTON    CLOUDY    56  54  93 S13       29.85F
CHAMPAIGN      CLOUDY    57  52  83 SE10      29.87S
DECATUR        CLOUDY    57  52  83 S8        29.85S
EFFINGHAM      MOCLDY    58  56  90 SE7       29.88F
FLORA          LGT RAIN  58  55  89 S9        29.88F
GALESBURG      CLOUDY    57  56  99 SE6       29.80F
JACKSONVILLE   CLOUDY    53  51  93 S9        29.82S
LACON          CLOUDY    53  53 100 E6        29.83S FOG
LAWRENCEVILLE  CLOUDY    60  58  92 S13       29.90F
LITCHFIELD     CLOUDY    52  51  98 S8        29.85S
$$


CITY           SKY/WX    TMP DP  RH WIND       PRES   REMARKS
LINCOLN        CLOUDY    57  57  98 S6        29.83F
MACOMB         MOCLDY    55  54  97 S7        29.82S
MATTOON        CLOUDY    59  54  83 S8        29.86S
MT CARMEL AP   CLOUDY    60  56  86 S9        29.89F
OLNEY-NOBLE AP CLOUDY    57  55  94 SE7       29.89S
PARIS          CLOUDY    58  57  96 SE8       29.90S
PEORIA         CLOUDY    58  56  93 S7        29.82F
PONTIAC        CLOUDY    56  56  98 SE10      29.87S
RANTOUL        CLOUDY    59  56  91 SE12      29.87F
SPRINGFIELD    CLOUDY    56  54  93 S9        29.83S
TAYLORVILLE    CLOUDY    55  54  94 S9        29.84S
$$

...REGIONAL REPORTS...


CITY           SKY/WX    TMP DP  RH WIND       PRES   REMARKS
CHICAGO O`HARE CLOUDY    47  45  93 NE8       29.91F FOG
KANKAKEE       MOCLDY    55  54  97 E9        29.89F
MOLINE         LGT RAIN  48  46  93 E7        29.82F FOG
MOUNT STERLING CLOUDY    53  52  96 SE6       29.79S
MOUNT VERNON   CLOUDY    57  55  93 S9        29.87F
PITTSFIELD     CLOUDY    54  52  94 S9        29.82R
QUINCY         CLOUDY    55  54  96 S12       29.78S
ROCKFORD       CLOUDY    47  44  90 E8        29.91F FOG
$$


CITY           SKY/WX    TMP DP  RH WIND       PRES   REMARKS
BURLINGTON     MOCLDY    56  54  93 SE7       29.78F
CEDAR RAPIDS   FOG       42  32  67 NE12      29.84F VSB 1/2
DES MOINES     DRIZZLE   42  40  92 NE9       29.86F FOG
KIRKSVILLE     CLOUDY    46  46 100 NW8       29.81F
OTTUMWA        LGT RAIN  45  45 100 N10       29.82S FOG
ST LOUIS       CLOUDY    55  50  83 SW8       29.86R
$$


CITY           SKY/WX    TMP DP  RH WIND       PRES   REMARKS
TERRE HAUTE    RAIN      59  56  89 S9        29.91S
EVANSVILLE     CLOUDY    60  57  89 SE6       29.91F
INDIANAPOLIS   LGT RAIN  57  56  96 SE6       29.94F
LAFAYETTE      LGT RAIN  58  57  97 S10       29.91F
MADISON        CLOUDY    39  38  96 NE9       29.94F WCI  33
MILWAUKEE      LGT RAIN  39  37  92 NE14      29.97F FOG     WCI  31
$$





USA.gov is the U.S. government's official web portal to all federal, state and local government web resources and services.